Mitchell, SD

9:05 PM CST on November 11, 2019 (GMT -0600)
Mitchell Municipal

Weather History for KMHE - September, 2019

Change the Weather History Date:

Sunday, September 15, 2019

  Actual Average Record
Temperature  
Mean Temperature 74 °F 63 °F  
Max Temperature 89 °F 76 °F 103 °F (1955)
Min Temperature 58 °F 50 °F 29 °F (1916)
Degree Days  
Heating Degree Days 0 4  
Month to date heating degree days 5 40  
Since 1 July heating degree days 14 57  
Cooling Degree Days 9 2  
Month to date cooling degree days 71 55  
Year to date cooling degree days 865 800  
Growing Degree Days 22 (Base 50)    
Moisture  
Dew Point 62 °F    
Average Humidity 71    
Maximum Humidity 97    
Minimum Humidity 44    
Precipitation  
Precipitation 0.00 in 0.08 in 0.90 in (1917)
Month to date precipitation 7.60 1.19  
Year to date precipitation 32.64 17.54  
Snow  
Snow 0.00 in - 0.00 in ()
Month to date snowfall 0.0  
Since 1 July snowfall 0.0  
Since 1 September snowfall 0.0  
Snow Depth 0.00 in    
Sea Level Pressure  
Sea Level Pressure 29.94 in    
Wind  
Wind Speed 7 mph (South)    
Max Wind Speed 17 mph    
Max Gust Speed 23 mph    
Visibility 6 miles    
Events Fog    
T = Trace of Precipitation, MM = Missing Value Source: NWS Daily Summary

Daily Weather History Graph

Daily Weather History Graph

Search for Another Location

Airport or City:

Astronomy

Sep. 15, 2019 Rise Set
Actual Time 7:11 AM CDT 7:42 PM CDT
Civil Twilight 6:42 AM CDT 8:11 PM CDT
Nautical Twilight 6:08 AM CDT 8:45 PM CDT
Astronomical Twilight 5:32 AM CDT 9:20 PM CDT
Moon 8:49 PM CDT (9/15) 8:23 AM CDT (9/15)
Length of Visible Light 13h 29m
Length of Day
12h 31m
Full, 98% of the Moon is Illuminated
Sep 15
Full
Sep 21
Last Quarter
Sep 28
New
Oct 5
First Quarter
Oct 13
Full

Hourly Weather History & Observations

Time (CDT) Temp. Heat Index Dew Point Humidity Pressure Visibility Wind Dir Wind Speed Gust Speed Precip Events Conditions
12:53 AM 64.0 °F - 62.1 °F 93% 29.93 in 8.0 mi Calm Calm - N/A   Clear
1:10 AM 64.0 °F - 62.1 °F 93% 29.95 in 1.5 mi Calm Calm - N/A   Clear
1:19 AM 64.0 °F - 62.1 °F 93% 29.95 in 0.5 mi Calm Calm - N/A Fog Fog
1:30 AM 63.0 °F - 61.0 °F 93% 29.95 in 2.0 mi Calm Calm - N/A   Clear
1:41 AM 64.0 °F - 61.0 °F 90% 29.95 in 8.0 mi West 3.5 mph - N/A   Clear
1:53 AM 63.0 °F - 61.0 °F 93% 29.94 in 5.0 mi Calm Calm - N/A   Clear
2:10 AM 63.0 °F - 60.1 °F 90% 29.96 in 1.5 mi West 4.6 mph - N/A   Clear
2:22 AM 63.0 °F - 61.0 °F 93% 29.96 in 3.0 mi West 3.5 mph - N/A   Clear
2:39 AM 63.0 °F - 61.0 °F 93% 29.96 in 1.8 mi WNW 3.5 mph - N/A   Clear
2:53 AM 63.0 °F - 61.0 °F 93% 29.94 in 1.8 mi Calm Calm - N/A   Clear
3:19 AM 61.0 °F - 59.0 °F 93% 29.96 in 3.0 mi WSW 4.6 mph - N/A   Clear
3:53 AM 61.0 °F - 59.0 °F 93% 29.94 in 8.0 mi Calm Calm - N/A   Clear
4:11 AM 60.1 °F - 59.0 °F 96% 29.96 in 1.8 mi Calm Calm - N/A   Clear
4:38 AM 60.1 °F - 57.9 °F 93% 29.96 in 3.0 mi Calm Calm - N/A   Clear
4:53 AM 60.1 °F - 57.9 °F 93% 29.95 in 2.0 mi Calm Calm - N/A   Clear
5:03 AM 59.0 °F - 57.0 °F 93% 29.97 in 9.0 mi SSW 5.8 mph - N/A   Clear
6:14 AM 57.9 °F - 55.9 °F 93% 29.97 in 0.8 mi SSE 3.5 mph - N/A   Clear
6:35 AM 57.9 °F - 55.9 °F 93% 29.97 in 2.0 mi SSE 5.8 mph - N/A   Clear
6:42 AM 59.0 °F - 57.0 °F 93% 29.97 in 5.0 mi SSE 4.6 mph - N/A   Clear
6:53 AM 59.0 °F - 57.0 °F 93% 29.96 in 5.0 mi SSE 5.8 mph - N/A   Clear
7:53 AM 62.1 °F - 59.0 °F 90% 29.96 in 6.0 mi Calm Calm - N/A   Clear
8:53 AM 66.0 °F - 62.1 °F 87% 29.97 in 10.0 mi SSW 3.5 mph - N/A   Clear
9:53 AM 70.0 °F - 64.0 °F 81% 29.97 in 10.0 mi SSW 3.5 mph - N/A   Clear
10:53 AM 77.0 °F - 66.0 °F 69% 29.97 in 10.0 mi South 5.8 mph - N/A   Clear
11:53 AM 82.0 °F 83.8 °F 64.9 °F 56% 29.97 in 10.0 mi SSW 5.8 mph - N/A   Clear
12:53 PM 84.9 °F 85.0 °F 61.0 °F 44% 29.96 in 10.0 mi South 9.2 mph - N/A   Clear
1:53 PM 88.0 °F 90.3 °F 66.0 °F 48% 29.94 in 10.0 mi SE 9.2 mph - N/A   Clear
2:53 PM 88.0 °F 90.3 °F 66.0 °F 48% 29.92 in 10.0 mi SE 12.7 mph - N/A   Clear
3:53 PM 88.0 °F 90.3 °F 66.0 °F 48% 29.91 in 10.0 mi SSE 12.7 mph - N/A   Clear
4:53 PM 87.1 °F 89.2 °F 66.0 °F 49% 29.90 in 10.0 mi SE 12.7 mph - N/A   Clear
5:53 PM 84.9 °F 87.6 °F 66.9 °F 55% 29.90 in 10.0 mi SSE 12.7 mph 23.0 mph N/A   Clear
6:53 PM 82.0 °F 84.1 °F 66.0 °F 58% 29.90 in 10.0 mi SSE 11.5 mph - N/A   Clear
7:53 PM 77.0 °F - 66.0 °F 69% 29.90 in 10.0 mi SSE 10.4 mph - N/A   Clear
8:53 PM 75.0 °F - 66.9 °F 76% 29.90 in 10.0 mi SSE 11.5 mph - N/A   Clear
9:53 PM 73.0 °F - 66.9 °F 81% 29.91 in 10.0 mi SSE 10.4 mph - N/A   Clear
10:53 PM 72.0 °F - 66.0 °F 81% 29.90 in 10.0 mi SSE 9.2 mph - N/A   Clear
11:53 PM 72.0 °F - 64.9 °F 78% 29.89 in 10.0 mi SSE 12.7 mph - N/A   Clear